IBE2KC LEMD-LEPA

Flight info

Callsign IBE2KC
Flight time 0h 55m
Altitude 30000
Route NANDO T257 FENXE/N0405F320 T257 LASPO/N0366F260 M871 GODOX
Aircraft A20N/M-SDE2E3FGHIRWXY/LB1

Departure

Time 2026-05-07 18:53
Airport Adolfo Suárez Madrid–Barajas Airport (LEMD)

Arrival

Time 2026-05-07 19:49
Airport Palma de Mallorca Airport (LEPA)
Time Latitude Longitude Altitude Speed Heading
2026-05-07 18:23 40.49347 -3.58962 2025 ft 0 kts 271°
2026-05-07 18:36 40.49347 -3.58956 2035 ft 3 kts 271°
2026-05-07 18:36 40.49345 -3.58930 2028 ft 3 kts 285°
2026-05-07 18:37 40.49340 -3.58907 2033 ft 3 kts 275°
2026-05-07 18:37 40.49343 -3.58882 2027 ft 3 kts 233°
2026-05-07 18:37 40.49359 -3.58866 2032 ft 3 kts 191°
2026-05-07 18:37 40.49378 -3.58868 2032 ft 3 kts 150°
2026-05-07 18:38 40.49385 -3.58875 2028 ft 0 kts 139°
2026-05-07 18:39 40.49394 -3.58884 2031 ft 3 kts 163°
2026-05-07 18:39 40.49403 -3.58886 2035 ft 0 kts 181°
2026-05-07 18:40 40.49402 -3.58886 2035 ft 0 kts 181°
2026-05-07 18:40 40.49403 -3.58886 2035 ft 0 kts 181°
2026-05-07 18:43 40.49399 -3.58886 2034 ft 2 kts 181°
2026-05-07 18:44 40.49361 -3.58886 2034 ft 8 kts 178°
2026-05-07 18:44 40.49287 -3.58883 2028 ft 11 kts 179°
2026-05-07 18:44 40.49236 -3.58844 2029 ft 8 kts 99°
2026-05-07 18:44 40.49240 -3.58765 2031 ft 9 kts 86°
2026-05-07 18:45 40.49238 -3.58683 2030 ft 9 kts 103°
2026-05-07 18:45 40.49201 -3.58633 2032 ft 8 kts 163°
2026-05-07 18:45 40.49148 -3.58633 2028 ft 8 kts 182°
2026-05-07 18:45 40.49093 -3.58633 2025 ft 8 kts 180°
2026-05-07 18:46 40.48999 -3.58633 2028 ft 21 kts 179°
2026-05-07 18:46 40.48852 -3.58632 2033 ft 21 kts 180°
2026-05-07 18:46 40.48759 -3.58544 2023 ft 19 kts 91°
2026-05-07 18:46 40.48760 -3.58357 2017 ft 22 kts 90°
2026-05-07 18:47 40.48761 -3.58144 2009 ft 25 kts 90°
2026-05-07 18:47 40.48793 -3.58047 2006 ft 3 kts 352°
2026-05-07 18:47 40.48842 -3.58035 2004 ft 11 kts 39°
2026-05-07 18:47 40.48858 -3.57926 2002 ft 14 kts 89°
2026-05-07 18:48 40.48858 -3.57783 1996 ft 17 kts 90°
2026-05-07 18:48 40.48861 -3.57617 1993 ft 19 kts 93°
2026-05-07 18:48 40.48858 -3.57448 1990 ft 16 kts 91°
2026-05-07 18:48 40.48859 -3.57294 1988 ft 18 kts 89°
2026-05-07 18:49 40.48862 -3.57116 1984 ft 21 kts 88°
2026-05-07 18:49 40.48861 -3.56927 1981 ft 21 kts 90°
2026-05-07 18:49 40.48861 -3.56715 1977 ft 29 kts 90°
2026-05-07 18:49 40.48862 -3.56422 1970 ft 34 kts 90°
2026-05-07 18:50 40.48955 -3.56243 1965 ft 25 kts 359°
2026-05-07 18:50 40.49129 -3.56252 1965 ft 25 kts 357°
2026-05-07 18:50 40.49298 -3.56247 1965 ft 24 kts
2026-05-07 18:50 40.49464 -3.56248 1964 ft 24 kts 359°
2026-05-07 18:51 40.49628 -3.56253 1965 ft 23 kts 357°
2026-05-07 18:51 40.49784 -3.56249 1964 ft 22 kts 359°
2026-05-07 18:51 40.49929 -3.56228 1964 ft 20 kts 48°
2026-05-07 18:51 40.49940 -3.56053 1961 ft 19 kts 85°
2026-05-07 18:52 40.50007 -3.55940 1962 ft 15 kts 30°
2026-05-07 18:52 40.50107 -3.55920 1963 ft 15 kts 359°
2026-05-07 18:52 40.50298 -3.55922 1964 ft 50 kts 359°
2026-05-07 18:52 40.50866 -3.55927 1966 ft 113 kts 360°
2026-05-07 18:53 40.51856 -3.55935 1996 ft 163 kts 359°
2026-05-07 18:53 40.53039 -3.55925 2399 ft 175 kts
2026-05-07 18:53 40.54224 -3.55705 3142 ft 170 kts 12°
2026-05-07 18:53 40.55385 -3.55402 3846 ft 171 kts 12°
2026-05-07 18:54 40.56550 -3.55094 4506 ft 177 kts 13°
2026-05-07 18:54 40.57789 -3.54782 5234 ft 185 kts 11°
2026-05-07 18:54 40.59068 -3.54484 5983 ft 188 kts 14°
2026-05-07 18:54 40.60269 -3.53819 6720 ft 187 kts 35°
2026-05-07 18:55 40.61297 -3.52765 7433 ft 188 kts 40°
2026-05-07 18:55 40.62254 -3.51598 8136 ft 187 kts 54°
2026-05-07 18:55 40.62697 -3.50026 8818 ft 184 kts 91°
2026-05-07 18:55 40.62268 -3.48521 9453 ft 177 kts 141°
2026-05-07 18:56 40.61509 -3.47206 9887 ft 194 kts 109°
2026-05-07 18:56 40.61333 -3.45341 10165 ft 216 kts 95°
2026-05-07 18:56 40.61200 -3.43309 10603 ft 228 kts 99°
2026-05-07 18:56 40.60942 -3.41231 11052 ft 240 kts 103°
2026-05-07 18:57 40.60561 -3.39021 11476 ft 255 kts 105°
2026-05-07 18:57 40.60080 -3.36649 11750 ft 280 kts 107°
2026-05-07 18:57 40.59529 -3.34131 12450 ft 290 kts 108°
2026-05-07 18:57 40.58948 -3.31560 13325 ft 294 kts 108°
2026-05-07 18:58 40.58353 -3.28964 14135 ft 299 kts 108°
2026-05-07 18:58 40.57741 -3.26319 14879 ft 305 kts 108°
2026-05-07 18:58 40.57108 -3.23600 15267 ft 324 kts 108°
2026-05-07 18:58 40.56422 -3.20665 15603 ft 345 kts 108°
2026-05-07 18:59 40.55698 -3.17571 16037 ft 360 kts 108°
2026-05-07 18:59 40.54954 -3.14393 16683 ft 368 kts 108°
2026-05-07 18:59 40.54194 -3.11155 17417 ft 373 kts 108°
2026-05-07 18:59 40.53423 -3.07872 18150 ft 378 kts 108°
2026-05-07 19:00 40.52642 -3.04550 18775 ft 383 kts 108°
2026-05-07 19:00 40.51849 -3.01186 19377 ft 388 kts 108°
2026-05-07 19:00 40.51044 -2.97780 19985 ft 393 kts 108°
2026-05-07 19:00 40.50228 -2.94329 20616 ft 397 kts 108°
2026-05-07 19:01 40.49404 -2.90848 21233 ft 402 kts 108°
2026-05-07 19:01 40.48578 -2.87368 21825 ft 406 kts 108°
2026-05-07 19:01 40.47734 -2.83813 22420 ft 410 kts 108°
2026-05-07 19:01 40.46876 -2.80206 22995 ft 415 kts 108°
2026-05-07 19:02 40.46010 -2.76575 23543 ft 419 kts 108°
2026-05-07 19:02 40.45130 -2.72887 23955 ft 424 kts 108°
2026-05-07 19:02 40.44234 -2.69140 24311 ft 430 kts 108°
2026-05-07 19:02 40.43342 -2.65414 24693 ft 436 kts 108°
2026-05-07 19:03 40.42427 -2.61598 25078 ft 441 kts 108°
2026-05-07 19:03 40.41495 -2.57716 25445 ft 446 kts 108°
2026-05-07 19:03 40.40552 -2.53797 25811 ft 451 kts 108°
2026-05-07 19:03 40.39600 -2.49847 26171 ft 456 kts 108°
2026-05-07 19:04 40.38647 -2.45903 26543 ft 460 kts 108°
2026-05-07 19:04 40.37673 -2.41873 26903 ft 465 kts 108°
2026-05-07 19:04 40.36687 -2.37804 27262 ft 469 kts 107°
2026-05-07 19:04 40.35695 -2.33716 27599 ft 474 kts 107°
2026-05-07 19:05 40.34688 -2.29573 27942 ft 478 kts 107°
2026-05-07 19:05 40.33672 -2.25402 28285 ft 482 kts 107°
2026-05-07 19:05 40.32656 -2.21237 28606 ft 486 kts 107°
2026-05-07 19:05 40.31618 -2.16990 28921 ft 490 kts 107°
2026-05-07 19:06 40.30573 -2.12725 29248 ft 494 kts 107°
2026-05-07 19:06 40.28453 -2.04086 29871 ft 501 kts 107°
2026-05-07 19:06 40.27376 -1.99712 29987 ft 509 kts 107°
2026-05-07 19:07 40.25157 -1.90724 29996 ft 528 kts 107°
2026-05-07 19:07 40.22868 -1.81492 29997 ft 533 kts 108°
2026-05-07 19:08 40.20588 -1.72329 30009 ft 532 kts 108°
2026-05-07 19:08 40.18293 -1.63143 30008 ft 531 kts 108°
2026-05-07 19:09 40.15992 -1.53967 30009 ft 530 kts 108°
2026-05-07 19:09 40.13689 -1.44820 30008 ft 528 kts 108°
2026-05-07 19:10 40.11404 -1.35775 30004 ft 526 kts 108°
2026-05-07 19:10 40.09102 -1.26696 30004 ft 525 kts 108°
2026-05-07 19:11 40.06798 -1.17648 29993 ft 524 kts 109°
2026-05-07 19:11 40.04498 -1.08646 29985 ft 523 kts 109°
2026-05-07 19:12 40.02190 -0.99647 29984 ft 522 kts 109°
2026-05-07 19:12 39.99882 -0.90677 29984 ft 521 kts 109°
2026-05-07 19:13 39.97588 -0.81797 29989 ft 519 kts 109°
2026-05-07 19:13 39.95281 -0.72898 29992 ft 517 kts 110°
2026-05-07 19:14 39.92976 -0.64044 29996 ft 514 kts 110°
2026-05-07 19:14 39.90679 -0.55246 29993 ft 511 kts 110°
2026-05-07 19:15 39.88391 -0.46518 29987 ft 508 kts 111°
2026-05-07 19:15 39.86106 -0.37829 29984 ft 505 kts 111°
2026-05-07 19:16 39.83835 -0.29226 29980 ft 505 kts 111°
2026-05-07 19:16 39.81547 -0.20588 29973 ft 505 kts 111°
2026-05-07 19:17 39.79251 -0.11952 29973 ft 505 kts 111°
2026-05-07 19:17 39.76948 -0.03315 29964 ft 505 kts 111°
2026-05-07 19:18 39.74638 0.05318 29968 ft 505 kts 111°
2026-05-07 19:18 39.72337 0.13888 29967 ft 504 kts 112°
2026-05-07 19:19 39.70022 0.22480 29963 ft 502 kts 112°
2026-05-07 19:19 39.67712 0.31024 29962 ft 500 kts 112°
2026-05-07 19:20 39.65419 0.39481 29962 ft 498 kts 112°
2026-05-07 19:20 39.63111 0.47961 29958 ft 497 kts 112°
2026-05-07 19:21 39.60811 0.56383 29963 ft 494 kts 112°
2026-05-07 19:21 39.58518 0.64751 29958 ft 490 kts 112°
2026-05-07 19:22 39.56234 0.73061 29957 ft 487 kts 112°
2026-05-07 19:22 39.53989 0.81213 29238 ft 469 kts 112°
2026-05-07 19:23 39.52909 0.85126 28057 ft 464 kts 112°
2026-05-07 19:23 39.51825 0.89037 26974 ft 458 kts 112°
2026-05-07 19:23 39.50759 0.92883 25976 ft 451 kts 112°
2026-05-07 19:23 39.49705 0.96679 25016 ft 444 kts 112°
2026-05-07 19:24 39.48667 1.00411 24082 ft 437 kts 112°
2026-05-07 19:24 39.47646 1.04078 23080 ft 430 kts 112°
2026-05-07 19:24 39.46636 1.07696 21942 ft 425 kts 112°
2026-05-07 19:24 39.45636 1.11276 20826 ft 420 kts 112°
2026-05-07 19:25 39.44976 1.13635 20105 ft 417 kts 111°
2026-05-07 19:25 39.43676 1.18276 18734 ft 411 kts 111°
2026-05-07 19:25 39.42706 1.21738 17641 ft 406 kts 111°
2026-05-07 19:25 39.41750 1.25142 16565 ft 398 kts 111°
2026-05-07 19:26 39.41129 1.27352 15898 ft 393 kts 111°
2026-05-07 19:26 39.40202 1.30648 14909 ft 386 kts 111°
2026-05-07 19:26 39.39286 1.33900 13967 ft 380 kts 111°
2026-05-07 19:26 39.38391 1.37074 12933 ft 373 kts 111°
2026-05-07 19:27 39.37675 1.40243 11891 ft 368 kts 100°
2026-05-07 19:27 39.37608 1.43514 10912 ft 362 kts 84°
2026-05-07 19:27 39.37956 1.46703 9998 ft 354 kts 80°
2026-05-07 19:27 39.38373 1.49800 8967 ft 348 kts 79°
2026-05-07 19:28 39.38789 1.52835 8309 ft 332 kts 79°
2026-05-07 19:28 39.39175 1.55691 8012 ft 313 kts 79°
2026-05-07 19:28 39.39535 1.58388 7939 ft 294 kts 79°
2026-05-07 19:28 39.39869 1.60908 7924 ft 275 kts 79°
2026-05-07 19:29 39.40186 1.63309 7934 ft 269 kts 79°
2026-05-07 19:29 39.40501 1.65699 7943 ft 270 kts 79°
2026-05-07 19:29 39.40814 1.68091 7944 ft 270 kts 79°
2026-05-07 19:29 39.41202 1.70461 7950 ft 268 kts 75°
2026-05-07 19:30 39.41547 1.72803 7948 ft 268 kts 80°
2026-05-07 19:30 39.41819 1.75176 7926 ft 267 kts 80°
2026-05-07 19:30 39.42092 1.77547 7638 ft 263 kts 79°
2026-05-07 19:30 39.42367 1.79837 7477 ft 253 kts 79°
2026-05-07 19:31 39.42638 1.82042 7333 ft 242 kts 79°
2026-05-07 19:31 39.42903 1.84149 7193 ft 232 kts 79°
2026-05-07 19:31 39.43159 1.86172 7070 ft 223 kts 78°
2026-05-07 19:31 39.43406 1.88110 6941 ft 213 kts 78°
2026-05-07 19:32 39.43645 1.89984 6604 ft 211 kts 78°
2026-05-07 19:32 39.43887 1.91863 6164 ft 213 kts 78°
2026-05-07 19:32 39.44130 1.93759 5960 ft 214 kts 78°
2026-05-07 19:32 39.44371 1.95643 5950 ft 209 kts 78°
2026-05-07 19:33 39.44603 1.97463 5948 ft 201 kts 78°
2026-05-07 19:33 39.44830 1.99245 5954 ft 200 kts 78°
2026-05-07 19:33 39.45054 2.01000 5952 ft 200 kts 78°
2026-05-07 19:33 39.45387 2.02774 5966 ft 208 kts 61°
2026-05-07 19:34 39.46265 2.04266 5963 ft 209 kts 45°
2026-05-07 19:34 39.47321 2.05557 5952 ft 205 kts 42°
2026-05-07 19:34 39.48330 2.06732 5934 ft 185 kts 42°
2026-05-07 19:34 39.49316 2.07870 5982 ft 199 kts 42°
2026-05-07 19:35 39.50348 2.09061 5959 ft 201 kts 42°
2026-05-07 19:35 39.51386 2.10257 5955 ft 198 kts 42°
2026-05-07 19:35 39.52414 2.11440 5962 ft 197 kts 41°
2026-05-07 19:35 39.53435 2.12619 5960 ft 196 kts 41°
2026-05-07 19:36 39.54452 2.13798 5961 ft 196 kts 41°
2026-05-07 19:36 39.55462 2.14964 5961 ft 197 kts 41°
2026-05-07 19:36 39.56487 2.16149 5954 ft 197 kts 42°
2026-05-07 19:36 39.57512 2.17333 5955 ft 197 kts 41°
2026-05-07 19:37 39.58536 2.18520 5960 ft 197 kts 42°
2026-05-07 19:37 39.59554 2.19703 5960 ft 197 kts 41°
2026-05-07 19:37 39.60575 2.20896 5959 ft 197 kts 42°
2026-05-07 19:37 39.61595 2.22091 5965 ft 197 kts 42°
2026-05-07 19:38 39.62557 2.23352 5951 ft 197 kts 58°
2026-05-07 19:38 39.62791 2.23987 5952 ft 197 kts 73°
2026-05-07 19:38 39.62884 2.25057 5960 ft 198 kts 95°
2026-05-07 19:38 39.62328 2.26685 5957 ft 204 kts 131°
2026-05-07 19:39 39.61099 2.27598 5966 ft 210 kts 165°
2026-05-07 19:39 39.59634 2.27828 5969 ft 214 kts 175°
2026-05-07 19:39 39.58134 2.27890 5964 ft 216 kts 176°
2026-05-07 19:39 39.56630 2.27928 5966 ft 216 kts 176°
2026-05-07 19:40 39.55132 2.27961 5959 ft 216 kts 177°
2026-05-07 19:40 39.53628 2.27998 5963 ft 216 kts 176°
2026-05-07 19:40 39.52179 2.28033 5984 ft 205 kts 177°
2026-05-07 19:40 39.50756 2.28066 5958 ft 203 kts 176°
2026-05-07 19:41 39.49377 2.28362 5614 ft 200 kts 152°
2026-05-07 19:41 39.48376 2.29523 5289 ft 191 kts 120°
2026-05-07 19:41 39.47751 2.31029 4974 ft 189 kts 112°
2026-05-07 19:41 39.47202 2.32569 4635 ft 188 kts 112°
2026-05-07 19:42 39.46663 2.34110 4332 ft 187 kts 112°
2026-05-07 19:42 39.46145 2.35615 4036 ft 184 kts 108°
2026-05-07 19:42 39.45927 2.37239 3725 ft 180 kts 90°
2026-05-07 19:42 39.46046 2.38828 3393 ft 178 kts 87°
2026-05-07 19:43 39.46083 2.40422 3101 ft 176 kts 87°
2026-05-07 19:43 39.46140 2.42009 3030 ft 177 kts 85°
2026-05-07 19:43 39.46216 2.43597 3027 ft 176 kts 85°
2026-05-07 19:43 39.46301 2.45172 3008 ft 175 kts 85°
2026-05-07 19:44 39.46390 2.46743 3026 ft 175 kts 84°
2026-05-07 19:44 39.46486 2.48313 3021 ft 174 kts 84°
2026-05-07 19:44 39.46581 2.49852 3023 ft 173 kts 85°
2026-05-07 19:44 39.46677 2.51396 3019 ft 171 kts 84°
2026-05-07 19:45 39.46773 2.52929 3014 ft 171 kts 83°
2026-05-07 19:45 39.47025 2.54430 2974 ft 171 kts 70°
2026-05-07 19:45 39.47527 2.55804 2771 ft 169 kts 60°
2026-05-07 19:45 39.48126 2.57096 2516 ft 166 kts 58°
2026-05-07 19:46 39.48728 2.58374 2279 ft 164 kts 59°
2026-05-07 19:46 39.49324 2.59639 2079 ft 165 kts 59°
2026-05-07 19:46 39.49913 2.60888 1842 ft 163 kts 59°
2026-05-07 19:46 39.50500 2.62131 1619 ft 161 kts 59°
2026-05-07 19:47 39.51079 2.63359 1431 ft 158 kts 58°
2026-05-07 19:47 39.51650 2.64569 1202 ft 158 kts 59°
2026-05-07 19:47 39.52212 2.65759 993 ft 150 kts 59°
2026-05-07 19:47 39.52747 2.66893 783 ft 149 kts 59°
2026-05-07 19:48 39.53284 2.68031 594 ft 146 kts 58°
2026-05-07 19:48 39.53802 2.69125 422 ft 138 kts 57°
2026-05-07 19:48 39.54281 2.70145 247 ft 127 kts 54°
2026-05-07 19:48 39.54724 2.71086 68 ft 117 kts 59°
2026-05-07 19:49 39.55101 2.71899 41 ft 85 kts 58°
2026-05-07 19:49 39.55322 2.72354 40 ft 34 kts 59°
2026-05-07 19:49 39.55434 2.72589 39 ft 42 kts 59°
2026-05-07 19:49 39.55496 2.72941 41 ft 36 kts 89°
2026-05-07 19:50 39.55512 2.73201 41 ft 24 kts 62°
2026-05-07 19:50 39.55588 2.73363 41 ft 19 kts 59°
2026-05-07 19:50 39.55637 2.73466 41 ft 10 kts 58°
2026-05-07 19:50 39.55640 2.73475 41 ft 0 kts 62°
2026-05-07 19:51 39.55637 2.73480 41 ft 2 kts 125°
2026-05-07 19:51 39.55604 2.73512 41 ft 9 kts 149°
2026-05-07 19:51 39.55552 2.73553 40 ft 9 kts 148°
2026-05-07 19:51 39.55330 2.73727 41 ft 63 kts 148°
2026-05-07 19:52 39.54960 2.74021 41 ft 61 kts 149°
2026-05-07 19:52 39.54767 2.74080 41 ft 21 kts 232°
2026-05-07 19:52 39.54705 2.73946 41 ft 15 kts 238°
2026-05-07 19:52 39.54652 2.73837 41 ft 14 kts 238°
2026-05-07 19:53 39.54631 2.73793 41 ft 4 kts 238°
2026-05-07 19:53 39.54586 2.73676 41 ft 18 kts 273°
2026-05-07 19:53 39.54661 2.73676 41 ft 13 kts 54°
2026-05-07 19:53 39.54664 2.73682 41 ft 0 kts 54°
2026-05-07 19:54 39.54662 2.73679 41 ft 1 kts 56°
2026-05-07 19:54 39.54658 2.73671 40 ft 1 kts 57°
2026-05-07 19:54 39.54652 2.73658 38 ft 2 kts 56°
2026-05-07 19:55 39.54648 2.73647 41 ft 1 kts 27°
2026-05-07 19:55 39.54658 2.73633 39 ft 4 kts 304°
2026-05-07 19:55 39.54673 2.73609 41 ft 3 kts 318°
2026-05-07 19:55 39.54692 2.73593 41 ft 5 kts 329°
2026-05-07 19:56 39.54729 2.73563 41 ft 6 kts 327°
2026-05-07 19:56 39.54761 2.73542 41 ft 3 kts 358°
2026-05-07 19:56 39.54773 2.73547 41 ft 1 kts 36°
2026-05-07 19:56 39.54783 2.73566 40 ft 6 kts 56°
2026-05-07 19:57 39.54800 2.73599 41 ft 0 kts 58°